AFR360 LFKJ-LFPO

Flight info

Callsign AFR360
Flight time N/A
Altitude 34000
Route TORTU DCT ERTEV DCT ENOBA DCT ASTIG DCT AOSTA DCT ORSUD DCT MOLUS DCT UNKIR DCT DJL
Aircraft A321/M-SDE3FGHIRWY/LB1

Departure

Time 2026-05-01 08:25
Airport Ajaccio Napoléon Bonaparte airport (LFKJ)

Arrival

Time N/A
Airport Paris-Orly Airport (LFPO)
Time Latitude Longitude Altitude Speed Heading
2026-05-01 08:09 41.92079 8.79641 21 ft 0 kts 345°
2026-05-01 08:16 41.92065 8.79645 21 ft 4 kts 345°
2026-05-01 08:16 41.92042 8.79653 23 ft 1 kts 346°
2026-05-01 08:19 41.92077 8.79692 21 ft 7 kts 50°
2026-05-01 08:19 41.92109 8.79737 21 ft 6 kts 38°
2026-05-01 08:19 41.92156 8.79768 23 ft 11 kts 24°
2026-05-01 08:19 41.92226 8.79811 21 ft 11 kts 24°
2026-05-01 08:20 41.92290 8.79850 22 ft 10 kts 24°
2026-05-01 08:20 41.92347 8.79884 21 ft 9 kts 24°
2026-05-01 08:20 41.92420 8.79929 21 ft 16 kts 25°
2026-05-01 08:20 41.92527 8.79995 21 ft 17 kts 25°
2026-05-01 08:21 41.92631 8.80060 21 ft 16 kts 25°
2026-05-01 08:21 41.92730 8.80122 23 ft 15 kts 25°
2026-05-01 08:21 41.92812 8.80201 21 ft 14 kts 44°
2026-05-01 08:21 41.92880 8.80293 21 ft 13 kts 45°
2026-05-01 08:22 41.92939 8.80374 21 ft 11 kts 49°
2026-05-01 08:22 41.92962 8.80463 22 ft 9 kts 93°
2026-05-01 08:22 41.92951 8.80537 25 ft 10 kts 95°
2026-05-01 08:22 41.92998 8.80622 26 ft 13 kts 21°
2026-05-01 08:23 41.93079 8.80649 26 ft 11 kts
2026-05-01 08:23 41.93132 8.80650 25 ft 7 kts
2026-05-01 08:23 41.93149 8.80692 26 ft 4 kts 107°
2026-05-01 08:23 41.93136 8.80698 25 ft 1 kts 169°
2026-05-01 08:24 41.93128 8.80698 28 ft 4 kts 181°
2026-05-01 08:24 41.93098 8.80683 29 ft 0 kts 203°
2026-05-01 08:24 41.92999 8.80626 28 ft 50 kts 204°
2026-05-01 08:24 41.92465 8.80290 25 ft 115 kts 205°
2026-05-01 08:25 41.91587 8.79730 52 ft 161 kts 205°
2026-05-01 08:25 41.90897 8.79292 383 ft 164 kts 206°
2026-05-01 08:25 41.89853 8.78628 1031 ft 165 kts 205°
2026-05-01 08:25 41.88516 8.77594 1771 ft 176 kts 214°
2026-05-01 08:26 41.87467 8.76598 2147 ft 192 kts 216°
2026-05-01 08:26 41.86721 8.75872 2340 ft 204 kts 215°
2026-05-01 08:26 41.85516 8.74701 2603 ft 224 kts 215°
2026-05-01 08:26 41.84169 8.73417 2819 ft 252 kts 214°
2026-05-01 08:27 41.82674 8.72018 3387 ft 264 kts 214°
2026-05-01 08:27 41.80641 8.70147 4511 ft 269 kts 213°
2026-05-01 08:27 41.79588 8.69178 5011 ft 274 kts 213°
2026-05-01 08:27 41.78183 8.67462 5715 ft 280 kts 234°
2026-05-01 08:28 41.77391 8.65083 6486 ft 283 kts 260°
2026-05-01 08:28 41.77436 8.62462 7234 ft 284 kts 287°
2026-05-01 08:28 41.78313 8.60119 7995 ft 282 kts 312°
2026-05-01 08:28 41.79827 8.58519 8730 ft 280 kts 337°
2026-05-01 08:29 41.81709 8.57923 9486 ft 279 kts
2026-05-01 08:29 41.83632 8.58257 10256 ft 279 kts 11°
2026-05-01 08:29 41.85617 8.58734 10616 ft 296 kts 11°
2026-05-01 08:29 41.87683 8.59229 10748 ft 318 kts 11°
2026-05-01 08:30 41.89922 8.59764 11115 ft 330 kts 10°
2026-05-01 08:30 41.92194 8.60303 11713 ft 334 kts 10°
2026-05-01 08:30 41.94505 8.60848 12376 ft 337 kts 10°
2026-05-01 08:30 41.96673 8.61364 13019 ft 340 kts 10°
2026-05-01 08:31 41.99026 8.61921 13703 ft 343 kts 10°
2026-05-01 08:31 42.01372 8.62477 14324 ft 346 kts 10°
2026-05-01 08:31 42.03747 8.63040 14909 ft 347 kts 10°
2026-05-01 08:31 42.06148 8.63609 15526 ft 349 kts 10°
2026-05-01 08:32 42.08539 8.64175 16128 ft 351 kts 10°
2026-05-01 08:32 42.10949 8.64748 16697 ft 352 kts 10°
2026-05-01 08:32 42.13374 8.65325 17276 ft 354 kts 10°
2026-05-01 08:32 42.15771 8.65895 17835 ft 356 kts 10°
2026-05-01 08:33 42.18234 8.66483 18419 ft 357 kts 10°
2026-05-01 08:33 42.20668 8.67063 18884 ft 360 kts 10°
2026-05-01 08:33 42.23164 8.67659 19285 ft 363 kts 10°
2026-05-01 08:33 42.25637 8.68249 19750 ft 364 kts
2026-05-01 08:34 42.28166 8.68857 20194 ft 366 kts
2026-05-01 08:34 42.30674 8.69462 20584 ft 368 kts
2026-05-01 08:34 42.33186 8.70062 20982 ft 370 kts
2026-05-01 08:34 42.35715 8.70666 21393 ft 371 kts
2026-05-01 08:35 42.38305 8.71286 21794 ft 374 kts
2026-05-01 08:35 42.40855 8.71898 22183 ft 376 kts
2026-05-01 08:35 42.43461 8.72526 22607 ft 378 kts
2026-05-01 08:35 42.46003 8.73140 22993 ft 380 kts
2026-05-01 08:36 42.48627 8.73771 23435 ft 382 kts
2026-05-01 08:36 42.51291 8.74410 23844 ft 385 kts
2026-05-01 08:36 42.53930 8.75047 24179 ft 387 kts
2026-05-01 08:36 42.56561 8.75685 24528 ft 389 kts
2026-05-01 08:37 42.59228 8.76332 24881 ft 391 kts
2026-05-01 08:37 42.61909 8.76983 25218 ft 393 kts
2026-05-01 08:37 42.64640 8.77642 25569 ft 394 kts
2026-05-01 08:37 42.67346 8.78295 25902 ft 396 kts
2026-05-01 08:38 42.70021 8.78942 26225 ft 398 kts
2026-05-01 08:38 42.72757 8.79605 26552 ft 400 kts
2026-05-01 08:38 42.75497 8.80269 26878 ft 402 kts
2026-05-01 08:38 42.78272 8.80945 27189 ft 404 kts
2026-05-01 08:39 42.81037 8.81621 27516 ft 406 kts
2026-05-01 08:39 42.83829 8.82300 27833 ft 408 kts
2026-05-01 08:39 42.86620 8.82980 28147 ft 410 kts
2026-05-01 08:39 42.89437 8.83667 28471 ft 412 kts
2026-05-01 08:40 42.95099 8.85051 29053 ft 416 kts
2026-05-01 08:40 42.97966 8.85753 29342 ft 418 kts
2026-05-01 08:40 43.00872 8.86465 29625 ft 420 kts
2026-05-01 08:41 43.03716 8.87163 29871 ft 421 kts
2026-05-01 08:41 43.06609 8.87872 30131 ft 423 kts
2026-05-01 08:41 43.09502 8.88584 30358 ft 424 kts
2026-05-01 08:41 43.12416 8.89304 30551 ft 426 kts
2026-05-01 08:42 43.15319 8.90019 30779 ft 426 kts
2026-05-01 08:42 43.18255 8.90739 31049 ft 425 kts
2026-05-01 08:42 43.21154 8.91452 31337 ft 424 kts
2026-05-01 08:42 43.24048 8.92169 31624 ft 423 kts
2026-05-01 08:43 43.26953 8.92889 31907 ft 422 kts
2026-05-01 08:43 43.29828 8.93601 32196 ft 421 kts
2026-05-01 08:43 43.32756 8.94328 32488 ft 420 kts
2026-05-01 08:43 43.35581 8.95027 32775 ft 419 kts
2026-05-01 08:44 43.38475 8.95682 33063 ft 418 kts
2026-05-01 08:44 43.41346 8.95840 33313 ft 418 kts
2026-05-01 08:44 43.44271 8.95833 33581 ft 417 kts
2026-05-01 08:44 43.47143 8.95829 33841 ft 417 kts
2026-05-01 08:45 43.50074 8.95825 34117 ft 417 kts
2026-05-01 08:45 43.52982 8.95825 34371 ft 416 kts
2026-05-01 08:45 43.55857 8.95825 34583 ft 416 kts 359°
2026-05-01 08:45 43.58725 8.95223 34788 ft 416 kts 341°
2026-05-01 08:46 43.61341 8.93541 34972 ft 418 kts 334°
2026-05-01 08:46 43.64009 8.91959 35155 ft 417 kts 340°
2026-05-01 08:46 43.66716 8.90513 35362 ft 417 kts 340°
2026-05-01 08:46 43.69415 8.89071 35574 ft 416 kts 340°
2026-05-01 08:47 43.72099 8.87589 35785 ft 416 kts 335°
2026-05-01 08:47 43.74607 8.85558 35966 ft 417 kts 328°
2026-05-01 08:47 43.77017 8.83314 36186 ft 417 kts 326°
2026-05-01 08:47 43.79365 8.80977 36308 ft 417 kts 325°
2026-05-01 08:48 43.83976 8.76252 36352 ft 413 kts 325°
2026-05-01 08:48 43.88645 8.71565 36334 ft 413 kts 326°
2026-05-01 08:49 43.93317 8.66979 36346 ft 413 kts 326°
2026-05-01 08:49 43.98045 8.62348 36345 ft 414 kts 326°
2026-05-01 08:50 44.02721 8.57740 36337 ft 414 kts 326°
2026-05-01 08:50 44.07443 8.53069 36326 ft 415 kts 326°
2026-05-01 08:51 44.12119 8.48426 36320 ft 415 kts 326°
2026-05-01 08:51 44.16844 8.43729 36313 ft 416 kts 326°
2026-05-01 08:52 44.21548 8.39042 36316 ft 416 kts 326°
2026-05-01 08:52 44.26236 8.34391 36310 ft 416 kts 328°
2026-05-01 08:53 44.31544 8.31149 36320 ft 414 kts 347°
2026-05-01 08:53 44.37237 8.30479 36334 ft 415 kts 359°
2026-05-01 08:54 44.43005 8.30355 36340 ft 416 kts 359°
2026-05-01 08:54 44.48794 8.30197 36346 ft 416 kts 359°
2026-05-01 08:55 44.54582 8.30035 36351 ft 417 kts 359°
2026-05-01 08:55 44.60385 8.29884 36353 ft 417 kts 359°
2026-05-01 08:56 44.66231 8.29742 36357 ft 417 kts 359°
2026-05-01 08:56 44.71990 8.29602 36366 ft 418 kts 359°
2026-05-01 08:57 44.77819 8.29460 36365 ft 418 kts 359°
2026-05-01 08:57 44.83636 8.29310 36365 ft 419 kts 359°
2026-05-01 08:58 44.89473 8.29125 36367 ft 419 kts 355°
2026-05-01 08:58 44.95096 8.27181 36365 ft 420 kts 336°
2026-05-01 08:59 45.00006 8.22722 36366 ft 423 kts 324°
2026-05-01 08:59 45.04691 8.17624 36364 ft 424 kts 324°
2026-05-01 09:00 45.09344 8.12554 36366 ft 425 kts 323°
2026-05-01 09:00 45.13325 8.08210 36371 ft 425 kts 323°
2026-05-01 09:01 45.18038 8.03051 36378 ft 426 kts 323°
2026-05-01 09:01 45.22691 7.97944 36377 ft 427 kts 323°
2026-05-01 09:02 45.27389 7.92776 36380 ft 428 kts 323°
2026-05-01 09:02 45.32103 7.87590 36384 ft 429 kts 323°
2026-05-01 09:03 45.36820 7.82386 36388 ft 430 kts 323°
2026-05-01 09:03 45.41547 7.77160 36385 ft 431 kts 323°
2026-05-01 09:04 45.46274 7.71917 36383 ft 431 kts 323°
2026-05-01 09:04 45.51048 7.66614 36366 ft 431 kts 323°
2026-05-01 09:05 45.55748 7.61378 36358 ft 432 kts 323°
2026-05-01 09:05 45.60479 7.56091 36367 ft 432 kts 323°
2026-05-01 09:06 45.65209 7.50799 36365 ft 433 kts 323°
2026-05-01 09:06 45.69956 7.45481 36373 ft 433 kts 323°
2026-05-01 09:07 45.74731 7.40115 36367 ft 434 kts 322°
2026-05-01 09:07 45.79445 7.34792 36365 ft 435 kts 322°
2026-05-01 09:08 45.84295 7.29652 36362 ft 436 kts 326°
2026-05-01 09:08 45.89286 7.24702 36350 ft 436 kts 326°
2026-05-01 09:09 45.94286 7.19718 36336 ft 437 kts 326°
2026-05-01 09:09 45.99255 7.14659 36301 ft 438 kts 325°
2026-05-01 09:10 46.04219 7.09552 36297 ft 438 kts 325°
2026-05-01 09:10 46.09166 7.04453 36302 ft 439 kts 325°
2026-05-01 09:11 46.14140 6.99333 36299 ft 440 kts 325°
2026-05-01 09:11 46.18334 6.95013 36301 ft 441 kts 325°
2026-05-01 09:12 46.24127 6.89034 36301 ft 441 kts 325°
2026-05-01 09:12 46.29106 6.83873 36308 ft 442 kts 325°
2026-05-01 09:13 46.33275 6.79531 36313 ft 443 kts 324°
2026-05-01 09:13 46.38261 6.74344 36321 ft 444 kts 325°
2026-05-01 09:14 46.43161 6.68872 36331 ft 444 kts 315°
2026-05-01 09:14 46.46866 6.61727 36335 ft 445 kts 300°
2026-05-01 09:15 46.49941 6.53930 36338 ft 445 kts 300°
2026-05-01 09:15 46.53031 6.46120 36332 ft 446 kts 300°
2026-05-01 09:16 46.56122 6.38275 36331 ft 447 kts 300°
2026-05-01 09:17 46.60721 6.26529 36316 ft 447 kts 299°
2026-05-01 09:17 46.65332 6.14698 36307 ft 448 kts 299°
2026-05-01 09:18 46.69932 6.02889 36296 ft 448 kts 299°
2026-05-01 09:19 46.74512 5.91029 36291 ft 448 kts 298°
2026-05-01 09:20 46.79107 5.79075 36276 ft 449 kts 298°
2026-05-01 09:20 46.82546 5.71528 36268 ft 450 kts 311°
2026-05-01 09:21 46.87075 5.65163 36265 ft 450 kts 316°
2026-05-01 09:21 46.93930 5.55748 36264 ft 451 kts 316°
2026-05-01 09:22 47.03087 5.43120 36261 ft 452 kts 316°
2026-05-01 09:23 47.09958 5.33602 36263 ft 453 kts 316°
2026-05-01 09:24 47.16801 5.24088 36288 ft 454 kts 316°
2026-05-01 09:25 47.27396 5.14605 36285 ft 453 kts 358°
2026-05-01 09:25 47.33434 5.16251 36284 ft 447 kts 28°
2026-05-01 09:26 47.36009 5.18721 36285 ft 443 kts 44°
2026-05-01 09:26 47.39501 5.26034 36277 ft 436 kts 68°
2026-05-01 09:26 47.40753 5.30100 36274 ft 436 kts 68°
2026-05-01 09:27 47.44516 5.42359 36262 ft 436 kts 67°
2026-05-01 09:28 47.47006 5.50494 36255 ft 435 kts 68°
2026-05-01 09:28 47.49489 5.58642 36251 ft 435 kts 68°
2026-05-01 09:29 47.53186 5.70876 36253 ft 434 kts 67°
2026-05-01 09:30 47.56886 5.83135 36252 ft 434 kts 67°
2026-05-01 09:30 47.60541 5.95322 36255 ft 434 kts 67°
2026-05-01 09:31 47.63010 6.03567 36261 ft 433 kts 67°
2026-05-01 09:32 47.66663 6.15825 36267 ft 433 kts 67°